Weather History for Shreveport, LA

Change the Weather History Date:

Saturday, September 21, 2013

  Actual Average Record
Temperature  
Mean Temperature 75 °F 75 °F  
Max Temperature 85 °F 87 °F 103 °F (2005)
Min Temperature 64 °F 64 °F 46 °F (1918)
Degree Days  
Heating Degree Days 0 0  
Month to date heating degree days 0 0  
Since 1 July heating degree days 0 0  
Cooling Degree Days 10 10  
Month to date cooling degree days 408 284  
Year to date cooling degree days 2453 2246  
Growing Degree Days 25 (Base 50)    
Moisture  
Dew Point 62 °F    
Average Humidity 63    
Maximum Humidity 93    
Minimum Humidity 32    
Precipitation  
Precipitation 0.01 in 0.10 in 2.45 in (1900)
Month to date precipitation 4.66 2.11  
Year to date precipitation 31.62 36.10  
Snow  
Snow 0.00 in - - ()
Month to date snowfall 0.0  
Since 1 July snowfall 0.0  
Since 1 September snowfall 0.0  
Snow Depth 0.00 in    
Sea Level Pressure  
Sea Level Pressure 29.85 in    
Wind  
Wind Speed 11 mph (NNE)    
Max Wind Speed 20 mph    
Max Gust Speed 24 mph    
Visibility 10 miles    
Events      
T = Trace of Precipitation, MM = Missing Value Source: NWS Daily Summary

Daily Weather History Graph

Daily Weather History Graph

Search for Another Location

Airport:

Trip Planner

Search our weather history database for the weather conditions in past years. The results will help you decide how hot, cold, wet, or windy it might be!

Date:

Astronomy

Sep. 21, 2013 Rise Set
Actual Time 7:03 AM CDT 7:12 PM CDT
Civil Twilight 6:38 AM CDT 7:37 PM CDT
Nautical Twilight 6:09 AM CDT 8:06 PM CDT
Astronomical Twilight 5:40 AM CDT 8:34 PM CDT
Moon 8:35 PM CDT (9/21) 9:12 AM CDT (9/21)
Length of Visible Light 12h 58m
Length of Day
12h 09m
Waning Gibbous, 94% of the Moon is Illuminated
Sep 21
Waning Gibbous
Sep 26
Last Quarter
Oct 4
New
Oct 11
First Quarter
Oct 18
Full

Hourly Weather History & Observations

Time (CDT) Temp. Heat Index Dew Point Humidity Pressure Visibility Wind Dir Wind Speed Gust Speed Precip Events Conditions
12:03 AM 71.6 °F - 69.8 °F 94% 29.83 in 10.0 mi North 5.8 mph - N/A   Mostly Cloudy
12:21 AM 71.6 °F - 69.8 °F 94% 29.83 in 10.0 mi NNW 6.9 mph - N/A   Overcast
12:56 AM 71.1 °F - 69.1 °F 93% 29.82 in 10.0 mi North 6.9 mph - N/A   Overcast
1:56 AM 71.1 °F - 69.1 °F 93% 29.82 in 10.0 mi North 13.8 mph - N/A   Overcast
2:38 AM 71.6 °F - 69.8 °F 94% 29.84 in 10.0 mi North 9.2 mph - 0.01 in   Overcast
2:48 AM 71.6 °F - 69.8 °F 94% 29.84 in 10.0 mi North 9.2 mph - 0.01 in   Overcast
2:56 AM 71.1 °F - 69.1 °F 93% 29.83 in 10.0 mi NNE 9.2 mph - 0.01 in   Overcast
3:24 AM 71.6 °F - 68.0 °F 88% 29.84 in 10.0 mi NNE 8.1 mph - N/A   Overcast
3:56 AM 71.1 °F - 68.0 °F 90% 29.82 in 10.0 mi NNE 9.2 mph - N/A   Overcast
4:03 AM 69.8 °F - 68.0 °F 94% 29.83 in 10.0 mi NNE 10.4 mph - N/A   Overcast
4:56 AM 70.0 °F - 66.9 °F 90% 29.83 in 10.0 mi NNE 11.5 mph - N/A   Overcast
5:48 AM 69.8 °F - 66.2 °F 88% 29.83 in 10.0 mi North 10.4 mph - N/A   Overcast
5:56 AM 70.0 °F - 66.9 °F 90% 29.83 in 10.0 mi NNE 12.7 mph 19.6 mph N/A   Overcast
6:30 AM 69.8 °F - 66.2 °F 88% 29.85 in 10.0 mi North 11.5 mph - N/A   Overcast
6:56 AM 68.0 °F - 64.0 °F 87% 29.86 in 10.0 mi NNE 13.8 mph 20.7 mph N/A   Overcast
7:12 AM 66.2 °F - 62.6 °F 88% 29.87 in 10.0 mi NNE 11.5 mph 20.7 mph N/A   Mostly Cloudy
7:56 AM 66.9 °F - 63.0 °F 87% 29.88 in 10.0 mi NNE 12.7 mph - N/A   Mostly Cloudy
8:56 AM 69.1 °F - 60.1 °F 73% 29.89 in 10.0 mi NNE 13.8 mph 21.9 mph N/A   Mostly Cloudy
9:21 AM 69.8 °F - 60.8 °F 73% 29.90 in 10.0 mi NNE 11.5 mph - N/A   Mostly Cloudy
9:56 AM 72.0 °F - 61.0 °F 68% 29.90 in 10.0 mi NNE 17.3 mph 21.9 mph N/A   Scattered Clouds
10:56 AM 75.0 °F - 62.1 °F 64% 29.90 in 10.0 mi NE 11.5 mph 21.9 mph N/A   Scattered Clouds
11:56 AM 77.0 °F - 61.0 °F 58% 29.89 in 10.0 mi NNE 16.1 mph 21.9 mph N/A   Scattered Clouds
12:56 PM 80.1 °F 81.2 °F 62.1 °F 54% 29.87 in 10.0 mi NNE 13.8 mph 23.0 mph N/A   Scattered Clouds
1:56 PM 82.0 °F 82.7 °F 61.0 °F 49% 29.85 in 10.0 mi NE 12.7 mph 23.0 mph N/A   Scattered Clouds
2:56 PM 84.0 °F 83.3 °F 57.0 °F 40% 29.83 in 10.0 mi North 16.1 mph 20.7 mph N/A   Scattered Clouds
3:56 PM 84.0 °F 82.6 °F 54.0 °F 35% 29.81 in 10.0 mi NE 11.5 mph 23.0 mph N/A   Scattered Clouds
4:56 PM 84.0 °F - 52.0 °F 33% 29.81 in 10.0 mi NE 12.7 mph 24.2 mph N/A   Scattered Clouds
5:56 PM 82.0 °F - 50.0 °F 33% 29.81 in 10.0 mi NNE 12.7 mph 21.9 mph N/A   Scattered Clouds
6:56 PM 78.1 °F - 48.9 °F 36% 29.82 in 10.0 mi NNE 10.4 mph - N/A   Partly Cloudy
7:56 PM 73.9 °F - 51.1 °F 45% 29.83 in 10.0 mi NNE 5.8 mph - N/A   Partly Cloudy
8:56 PM 71.1 °F - 54.0 °F 55% 29.85 in 10.0 mi NNE 5.8 mph - N/A   Clear
9:56 PM 69.1 °F - 55.0 °F 61% 29.86 in 10.0 mi NNE 6.9 mph - N/A   Clear
10:56 PM 66.9 °F - 55.9 °F 68% 29.86 in 10.0 mi Variable 5.8 mph - N/A   Clear
11:56 PM 66.9 °F - 54.0 °F 63% 29.86 in 10.0 mi ENE 6.9 mph - N/A   Clear